Index of /20260504/WXO-DD/model_gdps/15km/12/228
Name Last modified Size Description
Parent Directory -
20260504T12Z_MSC_GDPS_AbsoluteVorticity_IsbL-0200_LatLon0.15_PT228H.grib2 2026-05-04 16:59 1.2M
20260504T12Z_MSC_GDPS_AbsoluteVorticity_IsbL-0250_LatLon0.15_PT228H.grib2 2026-05-04 16:59 1.3M
20260504T12Z_MSC_GDPS_AbsoluteVorticity_IsbL-0500_LatLon0.15_PT228H.grib2 2026-05-04 16:59 1.5M
20260504T12Z_MSC_GDPS_AbsoluteVorticity_IsbL-0700_LatLon0.15_PT228H.grib2 2026-05-04 16:59 1.3M
20260504T12Z_MSC_GDPS_AbsoluteVorticity_IsbL-0850_LatLon0.15_PT228H.grib2 2026-05-04 16:59 1.6M
20260504T12Z_MSC_GDPS_AirTemp-Max_AGL-2m_LatLon0.15_PT228H.grib2 2026-05-04 16:59 744K
20260504T12Z_MSC_GDPS_AirTemp-Min_AGL-2m_LatLon0.15_PT228H.grib2 2026-05-04 16:59 791K
20260504T12Z_MSC_GDPS_AirTemp_AGL-120m_LatLon0.15_PT228H.grib2 2026-05-04 16:59 908K
20260504T12Z_MSC_GDPS_AirTemp_AGL-2m_LatLon0.15_PT228H.grib2 2026-05-04 16:59 1.0M
20260504T12Z_MSC_GDPS_AirTemp_AGL-40m_LatLon0.15_PT228H.grib2 2026-05-04 16:59 812K
20260504T12Z_MSC_GDPS_AirTemp_AGL-80m_LatLon0.15_PT228H.grib2 2026-05-04 16:59 918K
20260504T12Z_MSC_GDPS_AirTemp_IsbL-0001_LatLon0.15_PT228H.grib2 2026-05-04 16:59 671K
20260504T12Z_MSC_GDPS_AirTemp_IsbL-0005_LatLon0.15_PT228H.grib2 2026-05-04 16:59 699K
20260504T12Z_MSC_GDPS_AirTemp_IsbL-0010_LatLon0.15_PT228H.grib2 2026-05-04 16:59 694K
20260504T12Z_MSC_GDPS_AirTemp_IsbL-0020_LatLon0.15_PT228H.grib2 2026-05-04 16:59 785K
20260504T12Z_MSC_GDPS_AirTemp_IsbL-0030_LatLon0.15_PT228H.grib2 2026-05-04 16:59 828K
20260504T12Z_MSC_GDPS_AirTemp_IsbL-0050_LatLon0.15_PT228H.grib2 2026-05-04 16:59 871K
20260504T12Z_MSC_GDPS_AirTemp_IsbL-0100_LatLon0.15_PT228H.grib2 2026-05-04 16:59 953K
20260504T12Z_MSC_GDPS_AirTemp_IsbL-0150_LatLon0.15_PT228H.grib2 2026-05-04 16:59 1.0M
20260504T12Z_MSC_GDPS_AirTemp_IsbL-0175_LatLon0.15_PT228H.grib2 2026-05-04 16:59 960K
20260504T12Z_MSC_GDPS_AirTemp_IsbL-0200_LatLon0.15_PT228H.grib2 2026-05-04 16:59 969K
20260504T12Z_MSC_GDPS_AirTemp_IsbL-0225_LatLon0.15_PT228H.grib2 2026-05-04 16:59 968K
20260504T12Z_MSC_GDPS_AirTemp_IsbL-0250_LatLon0.15_PT228H.grib2 2026-05-04 16:59 1.0M
20260504T12Z_MSC_GDPS_AirTemp_IsbL-0275_LatLon0.15_PT228H.grib2 2026-05-04 16:59 1.0M
20260504T12Z_MSC_GDPS_AirTemp_IsbL-0300_LatLon0.15_PT228H.grib2 2026-05-04 16:59 1.0M
20260504T12Z_MSC_GDPS_AirTemp_IsbL-0350_LatLon0.15_PT228H.grib2 2026-05-04 16:59 927K
20260504T12Z_MSC_GDPS_AirTemp_IsbL-0400_LatLon0.15_PT228H.grib2 2026-05-04 16:59 942K
20260504T12Z_MSC_GDPS_AirTemp_IsbL-0450_LatLon0.15_PT228H.grib2 2026-05-04 16:59 966K
20260504T12Z_MSC_GDPS_AirTemp_IsbL-0500_LatLon0.15_PT228H.grib2 2026-05-04 16:59 1.0M
20260504T12Z_MSC_GDPS_AirTemp_IsbL-0550_LatLon0.15_PT228H.grib2 2026-05-04 16:59 1.0M
20260504T12Z_MSC_GDPS_AirTemp_IsbL-0600_LatLon0.15_PT228H.grib2 2026-05-04 16:59 894K
20260504T12Z_MSC_GDPS_AirTemp_IsbL-0650_LatLon0.15_PT228H.grib2 2026-05-04 16:59 926K
20260504T12Z_MSC_GDPS_AirTemp_IsbL-0700_LatLon0.15_PT228H.grib2 2026-05-04 16:59 956K
20260504T12Z_MSC_GDPS_AirTemp_IsbL-0750_LatLon0.15_PT228H.grib2 2026-05-04 16:59 1.0M
20260504T12Z_MSC_GDPS_AirTemp_IsbL-0800_LatLon0.15_PT228H.grib2 2026-05-04 16:59 1.1M
20260504T12Z_MSC_GDPS_AirTemp_IsbL-0850_LatLon0.15_PT228H.grib2 2026-05-04 16:59 1.1M
20260504T12Z_MSC_GDPS_AirTemp_IsbL-0875_LatLon0.15_PT228H.grib2 2026-05-04 16:59 1.1M
20260504T12Z_MSC_GDPS_AirTemp_IsbL-0900_LatLon0.15_PT228H.grib2 2026-05-04 16:59 1.1M
20260504T12Z_MSC_GDPS_AirTemp_IsbL-0925_LatLon0.15_PT228H.grib2 2026-05-04 16:59 1.1M
20260504T12Z_MSC_GDPS_AirTemp_IsbL-0950_LatLon0.15_PT228H.grib2 2026-05-04 16:59 1.1M
20260504T12Z_MSC_GDPS_AirTemp_IsbL-0970_LatLon0.15_PT228H.grib2 2026-05-04 16:59 1.1M
20260504T12Z_MSC_GDPS_AirTemp_IsbL-0985_LatLon0.15_PT228H.grib2 2026-05-04 16:59 1.1M
20260504T12Z_MSC_GDPS_AirTemp_IsbL-1000_LatLon0.15_PT228H.grib2 2026-05-04 16:59 1.1M
20260504T12Z_MSC_GDPS_AirTemp_IsbL-1015_LatLon0.15_PT228H.grib2 2026-05-04 16:59 1.1M
20260504T12Z_MSC_GDPS_Albedo_Sfc_LatLon0.15_PT228H.grib2 2026-05-04 16:59 247K
20260504T12Z_MSC_GDPS_CAPE_Sfc_LatLon0.15_PT228H.grib2 2026-05-04 16:59 4.0M
20260504T12Z_MSC_GDPS_CIN_Sfc_LatLon0.15_PT228H.grib2 2026-05-04 16:59 2.9M
20260504T12Z_MSC_GDPS_CloudWater_EAtm_LatLon0.15_PT228H.grib2 2026-05-04 16:59 542K
20260504T12Z_MSC_GDPS_ConvectivePrecip-Accum_Sfc_LatLon0.15_PT228H.grib2 2026-05-04 16:59 4.0M
20260504T12Z_MSC_GDPS_DewPointDepression_AGL-2m_LatLon0.15_PT228H.grib2 2026-05-04 16:59 761K
20260504T12Z_MSC_GDPS_DewPointDepression_IsbL-0010_LatLon0.15_PT228H.grib2 2026-05-04 16:59 84K
20260504T12Z_MSC_GDPS_DewPointDepression_IsbL-0020_LatLon0.15_PT228H.grib2 2026-05-04 16:59 82K
20260504T12Z_MSC_GDPS_DewPointDepression_IsbL-0030_LatLon0.15_PT228H.grib2 2026-05-04 16:59 97K
20260504T12Z_MSC_GDPS_DewPointDepression_IsbL-0050_LatLon0.15_PT228H.grib2 2026-05-04 16:59 368K
20260504T12Z_MSC_GDPS_DewPointDepression_IsbL-0100_LatLon0.15_PT228H.grib2 2026-05-04 16:59 379K
20260504T12Z_MSC_GDPS_DewPointDepression_IsbL-0150_LatLon0.15_PT228H.grib2 2026-05-04 16:59 483K
20260504T12Z_MSC_GDPS_DewPointDepression_IsbL-0175_LatLon0.15_PT228H.grib2 2026-05-04 16:59 587K
20260504T12Z_MSC_GDPS_DewPointDepression_IsbL-0200_LatLon0.15_PT228H.grib2 2026-05-04 16:59 691K
20260504T12Z_MSC_GDPS_DewPointDepression_IsbL-0225_LatLon0.15_PT228H.grib2 2026-05-04 16:59 778K
20260504T12Z_MSC_GDPS_DewPointDepression_IsbL-0250_LatLon0.15_PT228H.grib2 2026-05-04 16:59 864K
20260504T12Z_MSC_GDPS_DewPointDepression_IsbL-0275_LatLon0.15_PT228H.grib2 2026-05-04 16:59 886K
20260504T12Z_MSC_GDPS_DewPointDepression_IsbL-0300_LatLon0.15_PT228H.grib2 2026-05-04 16:59 927K
20260504T12Z_MSC_GDPS_DewPointDepression_IsbL-0350_LatLon0.15_PT228H.grib2 2026-05-04 16:59 954K
20260504T12Z_MSC_GDPS_DewPointDepression_IsbL-0400_LatLon0.15_PT228H.grib2 2026-05-04 16:59 1.0M
20260504T12Z_MSC_GDPS_DewPointDepression_IsbL-0450_LatLon0.15_PT228H.grib2 2026-05-04 16:59 1.0M
20260504T12Z_MSC_GDPS_DewPointDepression_IsbL-0500_LatLon0.15_PT228H.grib2 2026-05-04 16:59 1.0M
20260504T12Z_MSC_GDPS_DewPointDepression_IsbL-0550_LatLon0.15_PT228H.grib2 2026-05-04 16:59 1.0M
20260504T12Z_MSC_GDPS_DewPointDepression_IsbL-0600_LatLon0.15_PT228H.grib2 2026-05-04 16:59 1.1M
20260504T12Z_MSC_GDPS_DewPointDepression_IsbL-0650_LatLon0.15_PT228H.grib2 2026-05-04 16:59 1.1M
20260504T12Z_MSC_GDPS_DewPointDepression_IsbL-0700_LatLon0.15_PT228H.grib2 2026-05-04 16:59 1.1M
20260504T12Z_MSC_GDPS_DewPointDepression_IsbL-0750_LatLon0.15_PT228H.grib2 2026-05-04 16:59 1.1M
20260504T12Z_MSC_GDPS_DewPointDepression_IsbL-0800_LatLon0.15_PT228H.grib2 2026-05-04 16:59 1.2M
20260504T12Z_MSC_GDPS_DewPointDepression_IsbL-0850_LatLon0.15_PT228H.grib2 2026-05-04 16:59 1.1M
20260504T12Z_MSC_GDPS_DewPointDepression_IsbL-0875_LatLon0.15_PT228H.grib2 2026-05-04 16:59 1.1M
20260504T12Z_MSC_GDPS_DewPointDepression_IsbL-0900_LatLon0.15_PT228H.grib2 2026-05-04 16:59 1.0M
20260504T12Z_MSC_GDPS_DewPointDepression_IsbL-0925_LatLon0.15_PT228H.grib2 2026-05-04 16:59 1.0M
20260504T12Z_MSC_GDPS_DewPointDepression_IsbL-0950_LatLon0.15_PT228H.grib2 2026-05-04 16:59 1.0M
20260504T12Z_MSC_GDPS_DewPointDepression_IsbL-0970_LatLon0.15_PT228H.grib2 2026-05-04 16:59 1.0M
20260504T12Z_MSC_GDPS_DewPointDepression_IsbL-0985_LatLon0.15_PT228H.grib2 2026-05-04 16:59 1.0M
20260504T12Z_MSC_GDPS_DewPointDepression_IsbL-1000_LatLon0.15_PT228H.grib2 2026-05-04 16:59 967K
20260504T12Z_MSC_GDPS_DewPointDepression_IsbL-1015_LatLon0.15_PT228H.grib2 2026-05-04 16:59 905K
20260504T12Z_MSC_GDPS_DewPoint_AGL-2m_LatLon0.15_PT228H.grib2 2026-05-04 16:59 601K
20260504T12Z_MSC_GDPS_DownwardLongwaveRadiationFlux-Accum_Sfc_LatLon0.15_PT228H.grib2 2026-05-04 16:59 737K
20260504T12Z_MSC_GDPS_DownwardShortwaveRadiationFlux-Accum_NTAtm_LatLon0.15_PT228H.grib2 2026-05-04 16:59 263K
20260504T12Z_MSC_GDPS_DownwardShortwaveRadiationFlux-Accum_Sfc_LatLon0.15_PT228H.grib2 2026-05-04 16:59 905K
20260504T12Z_MSC_GDPS_FreezingRain-Accum12h_Sfc_LatLon0.15_PT228H.grib2 2026-05-04 16:59 154K
20260504T12Z_MSC_GDPS_FreezingRain-Accum24h_Sfc_LatLon0.15_PT228H.grib2 2026-05-04 16:59 206K
20260504T12Z_MSC_GDPS_FreezingRain-Accum6h_Sfc_LatLon0.15_PT228H.grib2 2026-05-04 16:59 96K
20260504T12Z_MSC_GDPS_FreezingRain-Accum_Sfc_LatLon0.15_PT228H.grib2 2026-05-04 16:59 569K
20260504T12Z_MSC_GDPS_GeopotentialHeight_IsbL-0001_LatLon0.15_PT228H.grib2 2026-05-04 16:59 463K
20260504T12Z_MSC_GDPS_GeopotentialHeight_IsbL-0005_LatLon0.15_PT228H.grib2 2026-05-04 16:59 359K
20260504T12Z_MSC_GDPS_GeopotentialHeight_IsbL-0010_LatLon0.15_PT228H.grib2 2026-05-04 16:59 480K
20260504T12Z_MSC_GDPS_GeopotentialHeight_IsbL-0020_LatLon0.15_PT228H.grib2 2026-05-04 16:59 462K
20260504T12Z_MSC_GDPS_GeopotentialHeight_IsbL-0030_LatLon0.15_PT228H.grib2 2026-05-04 16:59 417K
20260504T12Z_MSC_GDPS_GeopotentialHeight_IsbL-0050_LatLon0.15_PT228H.grib2 2026-05-04 16:59 573K
20260504T12Z_MSC_GDPS_GeopotentialHeight_IsbL-0100_LatLon0.15_PT228H.grib2 2026-05-04 16:59 614K
20260504T12Z_MSC_GDPS_GeopotentialHeight_IsbL-0150_LatLon0.15_PT228H.grib2 2026-05-04 16:59 633K
20260504T12Z_MSC_GDPS_GeopotentialHeight_IsbL-0175_LatLon0.15_PT228H.grib2 2026-05-04 16:59 637K
20260504T12Z_MSC_GDPS_GeopotentialHeight_IsbL-0200_LatLon0.15_PT228H.grib2 2026-05-04 16:59 640K
20260504T12Z_MSC_GDPS_GeopotentialHeight_IsbL-0225_LatLon0.15_PT228H.grib2 2026-05-04 16:59 642K
20260504T12Z_MSC_GDPS_GeopotentialHeight_IsbL-0250_LatLon0.15_PT228H.grib2 2026-05-04 16:59 639K
20260504T12Z_MSC_GDPS_GeopotentialHeight_IsbL-0275_LatLon0.15_PT228H.grib2 2026-05-04 16:59 639K
20260504T12Z_MSC_GDPS_GeopotentialHeight_IsbL-0300_LatLon0.15_PT228H.grib2 2026-05-04 16:59 638K
20260504T12Z_MSC_GDPS_GeopotentialHeight_IsbL-0350_LatLon0.15_PT228H.grib2 2026-05-04 16:59 629K
20260504T12Z_MSC_GDPS_GeopotentialHeight_IsbL-0400_LatLon0.15_PT228H.grib2 2026-05-04 16:59 621K
20260504T12Z_MSC_GDPS_GeopotentialHeight_IsbL-0450_LatLon0.15_PT228H.grib2 2026-05-04 16:59 541K
20260504T12Z_MSC_GDPS_GeopotentialHeight_IsbL-0500_LatLon0.15_PT228H.grib2 2026-05-04 16:59 532K
20260504T12Z_MSC_GDPS_GeopotentialHeight_IsbL-0550_LatLon0.15_PT228H.grib2 2026-05-04 16:59 527K
20260504T12Z_MSC_GDPS_GeopotentialHeight_IsbL-0600_LatLon0.15_PT228H.grib2 2026-05-04 16:59 692K
20260504T12Z_MSC_GDPS_GeopotentialHeight_IsbL-0650_LatLon0.15_PT228H.grib2 2026-05-04 16:59 690K
20260504T12Z_MSC_GDPS_GeopotentialHeight_IsbL-0700_LatLon0.15_PT228H.grib2 2026-05-04 16:59 692K
20260504T12Z_MSC_GDPS_GeopotentialHeight_IsbL-0750_LatLon0.15_PT228H.grib2 2026-05-04 16:59 698K
20260504T12Z_MSC_GDPS_GeopotentialHeight_IsbL-0800_LatLon0.15_PT228H.grib2 2026-05-04 16:59 709K
20260504T12Z_MSC_GDPS_GeopotentialHeight_IsbL-0850_LatLon0.15_PT228H.grib2 2026-05-04 16:59 718K
20260504T12Z_MSC_GDPS_GeopotentialHeight_IsbL-0875_LatLon0.15_PT228H.grib2 2026-05-04 16:59 722K
20260504T12Z_MSC_GDPS_GeopotentialHeight_IsbL-0900_LatLon0.15_PT228H.grib2 2026-05-04 16:59 729K
20260504T12Z_MSC_GDPS_GeopotentialHeight_IsbL-0925_LatLon0.15_PT228H.grib2 2026-05-04 16:59 737K
20260504T12Z_MSC_GDPS_GeopotentialHeight_IsbL-0950_LatLon0.15_PT228H.grib2 2026-05-04 16:59 743K
20260504T12Z_MSC_GDPS_GeopotentialHeight_IsbL-0970_LatLon0.15_PT228H.grib2 2026-05-04 16:59 575K
20260504T12Z_MSC_GDPS_GeopotentialHeight_IsbL-0985_LatLon0.15_PT228H.grib2 2026-05-04 16:59 586K
20260504T12Z_MSC_GDPS_GeopotentialHeight_IsbL-1000_LatLon0.15_PT228H.grib2 2026-05-04 16:59 601K
20260504T12Z_MSC_GDPS_GeopotentialHeight_IsbL-1015_LatLon0.15_PT228H.grib2 2026-05-04 16:59 618K
20260504T12Z_MSC_GDPS_IcePellets-Accum12h_Sfc_LatLon0.15_PT228H.grib2 2026-05-04 16:59 43K
20260504T12Z_MSC_GDPS_IcePellets-Accum24h_Sfc_LatLon0.15_PT228H.grib2 2026-05-04 16:59 55K
20260504T12Z_MSC_GDPS_IcePellets-Accum6h_Sfc_LatLon0.15_PT228H.grib2 2026-05-04 16:59 30K
20260504T12Z_MSC_GDPS_IcePellets-Accum_Sfc_LatLon0.15_PT228H.grib2 2026-05-04 16:59 277K
20260504T12Z_MSC_GDPS_KIndex_Sfc_LatLon0.15_PT228H.grib2 2026-05-04 16:59 6.5M
20260504T12Z_MSC_GDPS_LatentHeatNetFlux_Sfc_LatLon0.15_PT228H.grib2 2026-05-04 16:59 675K
20260504T12Z_MSC_GDPS_LiftedIndex-MU-VT_IsbL-0500_LatLon0.15_PT228H.grib2 2026-05-04 16:59 5.4M
20260504T12Z_MSC_GDPS_NetLongwaveRadiationFlux-Accum_Sfc_LatLon0.15_PT228H.grib2 2026-05-04 16:59 934K
20260504T12Z_MSC_GDPS_NetShortwaveRadiationFlux-Accum_Sfc_LatLon0.15_PT228H.grib2 2026-05-04 16:59 904K
20260504T12Z_MSC_GDPS_O3MixingRatio_Sfc_LatLon0.15_PT228H.grib2 2026-05-04 17:19 2.2M
20260504T12Z_MSC_GDPS_O3_EAtm_LatLon0.15_PT228H.grib2 2026-05-04 17:19 2.4M
20260504T12Z_MSC_GDPS_PlanetaryBoundaryLayerHeight_Sfc_LatLon0.15_PT228H.grib2 2026-05-04 16:59 2.4M
20260504T12Z_MSC_GDPS_Precip-Accum12h_Sfc_LatLon0.15_PT228H.grib2 2026-05-04 16:59 3.8M
20260504T12Z_MSC_GDPS_Precip-Accum24h_Sfc_LatLon0.15_PT228H.grib2 2026-05-04 16:59 3.9M
20260504T12Z_MSC_GDPS_Precip-Accum6h_Sfc_LatLon0.15_PT228H.grib2 2026-05-04 16:59 3.6M
20260504T12Z_MSC_GDPS_Precip-Accum_Sfc_LatLon0.15_PT228H.grib2 2026-05-04 16:59 5.0M
20260504T12Z_MSC_GDPS_PrecipRate_Sfc_LatLon0.15_PT228H.grib2 2026-05-04 16:59 2.9M
20260504T12Z_MSC_GDPS_PrecipType-Instant_Sfc_LatLon0.15_PT228H.grib2 2026-05-04 16:59 1.5M
20260504T12Z_MSC_GDPS_Pressure_MSL_LatLon0.15_PT228H.grib2 2026-05-04 16:59 826K
20260504T12Z_MSC_GDPS_Pressure_Sfc_LatLon0.15_PT228H.grib2 2026-05-04 16:59 1.1M
20260504T12Z_MSC_GDPS_RadiativeTemp_Sfc_LatLon0.15_PT228H.grib2 2026-05-04 16:59 656K
20260504T12Z_MSC_GDPS_Rain-Accum12h_Sfc_LatLon0.15_PT228H.grib2 2026-05-04 16:59 2.5M
20260504T12Z_MSC_GDPS_Rain-Accum24h_Sfc_LatLon0.15_PT228H.grib2 2026-05-04 16:59 2.7M
20260504T12Z_MSC_GDPS_Rain-Accum6h_Sfc_LatLon0.15_PT228H.grib2 2026-05-04 16:59 2.3M
20260504T12Z_MSC_GDPS_Rain-Accum_Sfc_LatLon0.15_PT228H.grib2 2026-05-04 16:59 4.1M
20260504T12Z_MSC_GDPS_RelativeHumidity_AGL-2m_LatLon0.15_PT228H.grib2 2026-05-04 16:59 1.0M
20260504T12Z_MSC_GDPS_RelativeHumidity_IsbL-0010_LatLon0.15_PT228H.grib2 2026-05-04 16:59 147K
20260504T12Z_MSC_GDPS_RelativeHumidity_IsbL-0020_LatLon0.15_PT228H.grib2 2026-05-04 16:59 159K
20260504T12Z_MSC_GDPS_RelativeHumidity_IsbL-0030_LatLon0.15_PT228H.grib2 2026-05-04 16:59 182K
20260504T12Z_MSC_GDPS_RelativeHumidity_IsbL-0050_LatLon0.15_PT228H.grib2 2026-05-04 16:59 328K
20260504T12Z_MSC_GDPS_RelativeHumidity_IsbL-0100_LatLon0.15_PT228H.grib2 2026-05-04 16:59 481K
20260504T12Z_MSC_GDPS_RelativeHumidity_IsbL-0150_LatLon0.15_PT228H.grib2 2026-05-04 16:59 669K
20260504T12Z_MSC_GDPS_RelativeHumidity_IsbL-0175_LatLon0.15_PT228H.grib2 2026-05-04 16:59 807K
20260504T12Z_MSC_GDPS_RelativeHumidity_IsbL-0200_LatLon0.15_PT228H.grib2 2026-05-04 16:59 726K
20260504T12Z_MSC_GDPS_RelativeHumidity_IsbL-0225_LatLon0.15_PT228H.grib2 2026-05-04 16:59 804K
20260504T12Z_MSC_GDPS_RelativeHumidity_IsbL-0250_LatLon0.15_PT228H.grib2 2026-05-04 16:59 872K
20260504T12Z_MSC_GDPS_RelativeHumidity_IsbL-0275_LatLon0.15_PT228H.grib2 2026-05-04 16:59 889K
20260504T12Z_MSC_GDPS_RelativeHumidity_IsbL-0300_LatLon0.15_PT228H.grib2 2026-05-04 16:59 927K
20260504T12Z_MSC_GDPS_RelativeHumidity_IsbL-0350_LatLon0.15_PT228H.grib2 2026-05-04 16:59 942K
20260504T12Z_MSC_GDPS_RelativeHumidity_IsbL-0400_LatLon0.15_PT228H.grib2 2026-05-04 16:59 967K
20260504T12Z_MSC_GDPS_RelativeHumidity_IsbL-0450_LatLon0.15_PT228H.grib2 2026-05-04 16:59 1.0M
20260504T12Z_MSC_GDPS_RelativeHumidity_IsbL-0500_LatLon0.15_PT228H.grib2 2026-05-04 16:59 1.0M
20260504T12Z_MSC_GDPS_RelativeHumidity_IsbL-0550_LatLon0.15_PT228H.grib2 2026-05-04 16:59 1.0M
20260504T12Z_MSC_GDPS_RelativeHumidity_IsbL-0600_LatLon0.15_PT228H.grib2 2026-05-04 16:59 1.0M
20260504T12Z_MSC_GDPS_RelativeHumidity_IsbL-0650_LatLon0.15_PT228H.grib2 2026-05-04 16:59 1.1M
20260504T12Z_MSC_GDPS_RelativeHumidity_IsbL-0700_LatLon0.15_PT228H.grib2 2026-05-04 16:59 1.1M
20260504T12Z_MSC_GDPS_RelativeHumidity_IsbL-0750_LatLon0.15_PT228H.grib2 2026-05-04 16:59 1.2M
20260504T12Z_MSC_GDPS_RelativeHumidity_IsbL-0800_LatLon0.15_PT228H.grib2 2026-05-04 16:59 1.2M
20260504T12Z_MSC_GDPS_RelativeHumidity_IsbL-0850_LatLon0.15_PT228H.grib2 2026-05-04 16:59 1.2M
20260504T12Z_MSC_GDPS_RelativeHumidity_IsbL-0875_LatLon0.15_PT228H.grib2 2026-05-04 16:59 1.2M
20260504T12Z_MSC_GDPS_RelativeHumidity_IsbL-0900_LatLon0.15_PT228H.grib2 2026-05-04 16:59 1.2M
20260504T12Z_MSC_GDPS_RelativeHumidity_IsbL-0925_LatLon0.15_PT228H.grib2 2026-05-04 16:59 1.2M
20260504T12Z_MSC_GDPS_RelativeHumidity_IsbL-0950_LatLon0.15_PT228H.grib2 2026-05-04 16:59 1.2M
20260504T12Z_MSC_GDPS_RelativeHumidity_IsbL-0970_LatLon0.15_PT228H.grib2 2026-05-04 16:59 1.2M
20260504T12Z_MSC_GDPS_RelativeHumidity_IsbL-0985_LatLon0.15_PT228H.grib2 2026-05-04 16:59 1.1M
20260504T12Z_MSC_GDPS_RelativeHumidity_IsbL-1000_LatLon0.15_PT228H.grib2 2026-05-04 16:59 1.1M
20260504T12Z_MSC_GDPS_RelativeHumidity_IsbL-1015_LatLon0.15_PT228H.grib2 2026-05-04 16:59 1.0M
20260504T12Z_MSC_GDPS_RelativeVorticity_IsbL-0200_LatLon0.15_PT228H.grib2 2026-05-04 16:59 1.2M
20260504T12Z_MSC_GDPS_RelativeVorticity_IsbL-0250_LatLon0.15_PT228H.grib2 2026-05-04 16:59 1.3M
20260504T12Z_MSC_GDPS_RelativeVorticity_IsbL-0500_LatLon0.15_PT228H.grib2 2026-05-04 16:59 1.5M
20260504T12Z_MSC_GDPS_RelativeVorticity_IsbL-0700_LatLon0.15_PT228H.grib2 2026-05-04 16:59 1.3M
20260504T12Z_MSC_GDPS_RelativeVorticity_IsbL-0850_LatLon0.15_PT228H.grib2 2026-05-04 16:59 1.6M
20260504T12Z_MSC_GDPS_Runoff-Accum_Sfc_LatLon0.15_PT228H.grib2 2026-05-04 16:59 142K
20260504T12Z_MSC_GDPS_SensibleHeatNetFlux_Sfc_LatLon0.15_PT228H.grib2 2026-05-04 16:59 450K
20260504T12Z_MSC_GDPS_ShowalterIndex_IsbL-0500_LatLon0.15_PT228H.grib2 2026-05-04 16:59 6.2M
20260504T12Z_MSC_GDPS_Snow-Accum12h_Sfc_LatLon0.15_PT228H.grib2 2026-05-04 16:59 1.3M
20260504T12Z_MSC_GDPS_Snow-Accum24h_Sfc_LatLon0.15_PT228H.grib2 2026-05-04 16:59 1.6M
20260504T12Z_MSC_GDPS_Snow-Accum6h_Sfc_LatLon0.15_PT228H.grib2 2026-05-04 16:59 1.4M
20260504T12Z_MSC_GDPS_Snow-Accum_Sfc_LatLon0.15_PT228H.grib2 2026-05-04 16:59 2.2M
20260504T12Z_MSC_GDPS_SnowDensity_Sfc_LatLon0.15_PT228H.grib2 2026-05-04 16:59 259K
20260504T12Z_MSC_GDPS_SnowDepth_Sfc_LatLon0.15_PT228H.grib2 2026-05-04 16:59 1.7M
20260504T12Z_MSC_GDPS_SoilTemp_DBS-0to10cm_LatLon0.15_PT228H.grib2 2026-05-04 16:59 519K
20260504T12Z_MSC_GDPS_SoilTemp_Sfc_LatLon0.15_PT228H.grib2 2026-05-04 16:59 580K
20260504T12Z_MSC_GDPS_SoilVolumetricIceContent_Sfc_LatLon0.15_PT228H.grib2 2026-05-04 16:59 172K
20260504T12Z_MSC_GDPS_SoilVolumetricWaterContent_DBS-0to10cm_LatLon0.15_PT228H.grib2 2026-05-04 16:59 607K
20260504T12Z_MSC_GDPS_SoilVolumetricWaterContent_DBS-0to1cm_LatLon0.15_PT228H.grib2 2026-05-04 16:59 653K
20260504T12Z_MSC_GDPS_SpecificHumidity_AGL-120m_LatLon0.15_PT228H.grib2 2026-05-04 16:59 1.1M
20260504T12Z_MSC_GDPS_SpecificHumidity_AGL-2m_LatLon0.15_PT228H.grib2 2026-05-04 16:59 1.2M
20260504T12Z_MSC_GDPS_SpecificHumidity_AGL-40m_LatLon0.15_PT228H.grib2 2026-05-04 16:59 1.1M
20260504T12Z_MSC_GDPS_SpecificHumidity_AGL-80m_LatLon0.15_PT228H.grib2 2026-05-04 16:59 1.1M
20260504T12Z_MSC_GDPS_SpecificHumidity_IsbL-0001_LatLon0.15_PT228H.grib2 2026-05-04 16:59 1.1M
20260504T12Z_MSC_GDPS_SpecificHumidity_IsbL-0005_LatLon0.15_PT228H.grib2 2026-05-04 16:59 1.3M
20260504T12Z_MSC_GDPS_SpecificHumidity_IsbL-0010_LatLon0.15_PT228H.grib2 2026-05-04 16:59 1.1M
20260504T12Z_MSC_GDPS_SpecificHumidity_IsbL-0020_LatLon0.15_PT228H.grib2 2026-05-04 16:59 1.1M
20260504T12Z_MSC_GDPS_SpecificHumidity_IsbL-0030_LatLon0.15_PT228H.grib2 2026-05-04 16:59 1.1M
20260504T12Z_MSC_GDPS_SpecificHumidity_IsbL-0050_LatLon0.15_PT228H.grib2 2026-05-04 16:59 1.4M
20260504T12Z_MSC_GDPS_SpecificHumidity_IsbL-0100_LatLon0.15_PT228H.grib2 2026-05-04 16:59 1.2M
20260504T12Z_MSC_GDPS_SpecificHumidity_IsbL-0150_LatLon0.15_PT228H.grib2 2026-05-04 16:59 1.3M
20260504T12Z_MSC_GDPS_SpecificHumidity_IsbL-0175_LatLon0.15_PT228H.grib2 2026-05-04 16:59 1.3M
20260504T12Z_MSC_GDPS_SpecificHumidity_IsbL-0200_LatLon0.15_PT228H.grib2 2026-05-04 16:59 1.3M
20260504T12Z_MSC_GDPS_SpecificHumidity_IsbL-0225_LatLon0.15_PT228H.grib2 2026-05-04 16:59 1.3M
20260504T12Z_MSC_GDPS_SpecificHumidity_IsbL-0250_LatLon0.15_PT228H.grib2 2026-05-04 16:59 1.2M
20260504T12Z_MSC_GDPS_SpecificHumidity_IsbL-0275_LatLon0.15_PT228H.grib2 2026-05-04 16:59 1.3M
20260504T12Z_MSC_GDPS_SpecificHumidity_IsbL-0300_LatLon0.15_PT228H.grib2 2026-05-04 16:59 1.2M
20260504T12Z_MSC_GDPS_SpecificHumidity_IsbL-0350_LatLon0.15_PT228H.grib2 2026-05-04 16:59 1.2M
20260504T12Z_MSC_GDPS_SpecificHumidity_IsbL-0400_LatLon0.15_PT228H.grib2 2026-05-04 16:59 1.5M
20260504T12Z_MSC_GDPS_SpecificHumidity_IsbL-0450_LatLon0.15_PT228H.grib2 2026-05-04 16:59 1.3M
20260504T12Z_MSC_GDPS_SpecificHumidity_IsbL-0500_LatLon0.15_PT228H.grib2 2026-05-04 16:59 1.5M
20260504T12Z_MSC_GDPS_SpecificHumidity_IsbL-0550_LatLon0.15_PT228H.grib2 2026-05-04 16:59 1.6M
20260504T12Z_MSC_GDPS_SpecificHumidity_IsbL-0600_LatLon0.15_PT228H.grib2 2026-05-04 16:59 1.8M
20260504T12Z_MSC_GDPS_SpecificHumidity_IsbL-0650_LatLon0.15_PT228H.grib2 2026-05-04 16:59 1.6M
20260504T12Z_MSC_GDPS_SpecificHumidity_IsbL-0700_LatLon0.15_PT228H.grib2 2026-05-04 16:59 1.6M
20260504T12Z_MSC_GDPS_SpecificHumidity_IsbL-0750_LatLon0.15_PT228H.grib2 2026-05-04 16:59 1.7M
20260504T12Z_MSC_GDPS_SpecificHumidity_IsbL-0800_LatLon0.15_PT228H.grib2 2026-05-04 16:59 1.9M
20260504T12Z_MSC_GDPS_SpecificHumidity_IsbL-0850_LatLon0.15_PT228H.grib2 2026-05-04 16:59 1.9M
20260504T12Z_MSC_GDPS_SpecificHumidity_IsbL-0875_LatLon0.15_PT228H.grib2 2026-05-04 16:59 2.0M
20260504T12Z_MSC_GDPS_SpecificHumidity_IsbL-0900_LatLon0.15_PT228H.grib2 2026-05-04 16:59 1.9M
20260504T12Z_MSC_GDPS_SpecificHumidity_IsbL-0925_LatLon0.15_PT228H.grib2 2026-05-04 16:59 1.6M
20260504T12Z_MSC_GDPS_SpecificHumidity_IsbL-0950_LatLon0.15_PT228H.grib2 2026-05-04 16:59 1.6M
20260504T12Z_MSC_GDPS_SpecificHumidity_IsbL-0970_LatLon0.15_PT228H.grib2 2026-05-04 16:59 1.6M
20260504T12Z_MSC_GDPS_SpecificHumidity_IsbL-0985_LatLon0.15_PT228H.grib2 2026-05-04 16:59 1.5M
20260504T12Z_MSC_GDPS_SpecificHumidity_IsbL-1000_LatLon0.15_PT228H.grib2 2026-05-04 16:59 1.5M
20260504T12Z_MSC_GDPS_SpecificHumidity_IsbL-1015_LatLon0.15_PT228H.grib2 2026-05-04 16:59 1.5M
20260504T12Z_MSC_GDPS_SpecificHumidity_Sfc_LatLon0.15_PT228H.grib2 2026-05-04 16:59 673K
20260504T12Z_MSC_GDPS_Thickness_IsbL-0850to0700_LatLon0.15_PT228H.grib2 2026-05-04 16:59 471K
20260504T12Z_MSC_GDPS_Thickness_IsbL-1000to0500_LatLon0.15_PT228H.grib2 2026-05-04 16:59 372K
20260504T12Z_MSC_GDPS_Thickness_IsbL-1000to0850_LatLon0.15_PT228H.grib2 2026-05-04 16:59 490K
20260504T12Z_MSC_GDPS_TotalCloudCover_Sfc_LatLon0.15_PT228H.grib2 2026-05-04 16:59 832K
20260504T12Z_MSC_GDPS_TotalTotalsIndex_Sfc_LatLon0.15_PT228H.grib2 2026-05-04 16:59 6.2M
20260504T12Z_MSC_GDPS_UVIndex-ClearSky_Sfc_LatLon0.15_PT228H.grib2 2026-05-04 17:19 1.0M
20260504T12Z_MSC_GDPS_UVIndex_Sfc_LatLon0.15_PT228H.grib2 2026-05-04 17:19 1.5M
20260504T12Z_MSC_GDPS_UpwardLongwaveRadiationFlux_NTAtm_LatLon0.15_PT228H.grib2 2026-05-04 16:59 834K
20260504T12Z_MSC_GDPS_VerticalVelocity_IsbL-0200_LatLon0.15_PT228H.grib2 2026-05-04 16:59 937K
20260504T12Z_MSC_GDPS_VerticalVelocity_IsbL-0250_LatLon0.15_PT228H.grib2 2026-05-04 16:59 1.1M
20260504T12Z_MSC_GDPS_VerticalVelocity_IsbL-0500_LatLon0.15_PT228H.grib2 2026-05-04 16:59 1.0M
20260504T12Z_MSC_GDPS_VerticalVelocity_IsbL-0600_LatLon0.15_PT228H.grib2 2026-05-04 16:59 1.1M
20260504T12Z_MSC_GDPS_VerticalVelocity_IsbL-0700_LatLon0.15_PT228H.grib2 2026-05-04 16:59 1.1M
20260504T12Z_MSC_GDPS_VerticalVelocity_IsbL-0850_LatLon0.15_PT228H.grib2 2026-05-04 16:59 1.6M
20260504T12Z_MSC_GDPS_WindChill_Sfc_LatLon0.15_PT228H.grib2 2026-05-04 16:59 5.3M
20260504T12Z_MSC_GDPS_WindDir_AGL-10m_LatLon0.15_PT228H.grib2 2026-05-04 16:59 1.3M
20260504T12Z_MSC_GDPS_WindDir_AGL-120m_LatLon0.15_PT228H.grib2 2026-05-04 16:59 1.3M
20260504T12Z_MSC_GDPS_WindDir_AGL-40m_LatLon0.15_PT228H.grib2 2026-05-04 16:59 1.4M
20260504T12Z_MSC_GDPS_WindDir_AGL-80m_LatLon0.15_PT228H.grib2 2026-05-04 16:59 1.3M
20260504T12Z_MSC_GDPS_WindDir_IsbL-0001_LatLon0.15_PT228H.grib2 2026-05-04 16:59 647K
20260504T12Z_MSC_GDPS_WindDir_IsbL-0005_LatLon0.15_PT228H.grib2 2026-05-04 16:59 796K
20260504T12Z_MSC_GDPS_WindDir_IsbL-0010_LatLon0.15_PT228H.grib2 2026-05-04 16:59 827K
20260504T12Z_MSC_GDPS_WindDir_IsbL-0020_LatLon0.15_PT228H.grib2 2026-05-04 16:59 903K
20260504T12Z_MSC_GDPS_WindDir_IsbL-0030_LatLon0.15_PT228H.grib2 2026-05-04 16:59 918K
20260504T12Z_MSC_GDPS_WindDir_IsbL-0050_LatLon0.15_PT228H.grib2 2026-05-04 16:59 934K
20260504T12Z_MSC_GDPS_WindDir_IsbL-0100_LatLon0.15_PT228H.grib2 2026-05-04 16:59 1.0M
20260504T12Z_MSC_GDPS_WindDir_IsbL-0150_LatLon0.15_PT228H.grib2 2026-05-04 16:59 1.0M
20260504T12Z_MSC_GDPS_WindDir_IsbL-0175_LatLon0.15_PT228H.grib2 2026-05-04 16:59 1.0M
20260504T12Z_MSC_GDPS_WindDir_IsbL-0200_LatLon0.15_PT228H.grib2 2026-05-04 16:59 1.1M
20260504T12Z_MSC_GDPS_WindDir_IsbL-0225_LatLon0.15_PT228H.grib2 2026-05-04 16:59 1.1M
20260504T12Z_MSC_GDPS_WindDir_IsbL-0250_LatLon0.15_PT228H.grib2 2026-05-04 16:59 1.1M
20260504T12Z_MSC_GDPS_WindDir_IsbL-0275_LatLon0.15_PT228H.grib2 2026-05-04 16:59 1.2M
20260504T12Z_MSC_GDPS_WindDir_IsbL-0300_LatLon0.15_PT228H.grib2 2026-05-04 16:59 1.2M
20260504T12Z_MSC_GDPS_WindDir_IsbL-0350_LatLon0.15_PT228H.grib2 2026-05-04 16:59 1.2M
20260504T12Z_MSC_GDPS_WindDir_IsbL-0400_LatLon0.15_PT228H.grib2 2026-05-04 16:59 1.3M
20260504T12Z_MSC_GDPS_WindDir_IsbL-0450_LatLon0.15_PT228H.grib2 2026-05-04 16:59 1.3M
20260504T12Z_MSC_GDPS_WindDir_IsbL-0500_LatLon0.15_PT228H.grib2 2026-05-04 16:59 1.4M
20260504T12Z_MSC_GDPS_WindDir_IsbL-0550_LatLon0.15_PT228H.grib2 2026-05-04 16:59 1.4M
20260504T12Z_MSC_GDPS_WindDir_IsbL-0600_LatLon0.15_PT228H.grib2 2026-05-04 16:59 1.5M
20260504T12Z_MSC_GDPS_WindDir_IsbL-0650_LatLon0.15_PT228H.grib2 2026-05-04 16:59 1.5M
20260504T12Z_MSC_GDPS_WindDir_IsbL-0700_LatLon0.15_PT228H.grib2 2026-05-04 16:59 1.6M
20260504T12Z_MSC_GDPS_WindDir_IsbL-0750_LatLon0.15_PT228H.grib2 2026-05-04 16:59 1.7M
20260504T12Z_MSC_GDPS_WindDir_IsbL-0800_LatLon0.15_PT228H.grib2 2026-05-04 16:59 1.8M
20260504T12Z_MSC_GDPS_WindDir_IsbL-0850_LatLon0.15_PT228H.grib2 2026-05-04 16:59 1.9M
20260504T12Z_MSC_GDPS_WindDir_IsbL-0875_LatLon0.15_PT228H.grib2 2026-05-04 16:59 1.9M
20260504T12Z_MSC_GDPS_WindDir_IsbL-0900_LatLon0.15_PT228H.grib2 2026-05-04 16:59 1.9M
20260504T12Z_MSC_GDPS_WindDir_IsbL-0925_LatLon0.15_PT228H.grib2 2026-05-04 16:59 1.9M
20260504T12Z_MSC_GDPS_WindDir_IsbL-0950_LatLon0.15_PT228H.grib2 2026-05-04 16:59 1.9M
20260504T12Z_MSC_GDPS_WindDir_IsbL-0970_LatLon0.15_PT228H.grib2 2026-05-04 16:59 2.0M
20260504T12Z_MSC_GDPS_WindDir_IsbL-0985_LatLon0.15_PT228H.grib2 2026-05-04 16:59 2.0M
20260504T12Z_MSC_GDPS_WindDir_IsbL-1000_LatLon0.15_PT228H.grib2 2026-05-04 16:59 2.0M
20260504T12Z_MSC_GDPS_WindDir_IsbL-1015_LatLon0.15_PT228H.grib2 2026-05-04 16:59 2.0M
20260504T12Z_MSC_GDPS_WindGust-Max_AGL-10m_LatLon0.15_PT228H.grib2 2026-05-04 16:59 2.3M
20260504T12Z_MSC_GDPS_WindGust-Min_AGL-10m_LatLon0.15_PT228H.grib2 2026-05-04 16:59 2.2M
20260504T12Z_MSC_GDPS_WindGust_AGL-10m_LatLon0.15_PT228H.grib2 2026-05-04 16:59 2.2M
20260504T12Z_MSC_GDPS_WindSpeed_AGL-10m_LatLon0.15_PT228H.grib2 2026-05-04 16:59 1.1M
20260504T12Z_MSC_GDPS_WindSpeed_AGL-120m_LatLon0.15_PT228H.grib2 2026-05-04 16:59 1.2M
20260504T12Z_MSC_GDPS_WindSpeed_AGL-40m_LatLon0.15_PT228H.grib2 2026-05-04 16:59 1.2M
20260504T12Z_MSC_GDPS_WindSpeed_AGL-80m_LatLon0.15_PT228H.grib2 2026-05-04 16:59 1.2M
20260504T12Z_MSC_GDPS_WindSpeed_IsbL-0001_LatLon0.15_PT228H.grib2 2026-05-04 16:59 507K
20260504T12Z_MSC_GDPS_WindSpeed_IsbL-0005_LatLon0.15_PT228H.grib2 2026-05-04 16:59 693K
20260504T12Z_MSC_GDPS_WindSpeed_IsbL-0010_LatLon0.15_PT228H.grib2 2026-05-04 16:59 621K
20260504T12Z_MSC_GDPS_WindSpeed_IsbL-0020_LatLon0.15_PT228H.grib2 2026-05-04 16:59 651K
20260504T12Z_MSC_GDPS_WindSpeed_IsbL-0030_LatLon0.15_PT228H.grib2 2026-05-04 16:59 659K
20260504T12Z_MSC_GDPS_WindSpeed_IsbL-0050_LatLon0.15_PT228H.grib2 2026-05-04 16:59 887K
20260504T12Z_MSC_GDPS_WindSpeed_IsbL-0100_LatLon0.15_PT228H.grib2 2026-05-04 16:59 1.1M
20260504T12Z_MSC_GDPS_WindSpeed_IsbL-0150_LatLon0.15_PT228H.grib2 2026-05-04 16:59 1.0M
20260504T12Z_MSC_GDPS_WindSpeed_IsbL-0175_LatLon0.15_PT228H.grib2 2026-05-04 16:59 1.0M
20260504T12Z_MSC_GDPS_WindSpeed_IsbL-0200_LatLon0.15_PT228H.grib2 2026-05-04 16:59 1.1M
20260504T12Z_MSC_GDPS_WindSpeed_IsbL-0225_LatLon0.15_PT228H.grib2 2026-05-04 16:59 1.1M
20260504T12Z_MSC_GDPS_WindSpeed_IsbL-0250_LatLon0.15_PT228H.grib2 2026-05-04 16:59 1.1M
20260504T12Z_MSC_GDPS_WindSpeed_IsbL-0275_LatLon0.15_PT228H.grib2 2026-05-04 16:59 1.1M
20260504T12Z_MSC_GDPS_WindSpeed_IsbL-0300_LatLon0.15_PT228H.grib2 2026-05-04 16:59 1.1M
20260504T12Z_MSC_GDPS_WindSpeed_IsbL-0350_LatLon0.15_PT228H.grib2 2026-05-04 16:59 1.1M
20260504T12Z_MSC_GDPS_WindSpeed_IsbL-0400_LatLon0.15_PT228H.grib2 2026-05-04 16:59 1.1M
20260504T12Z_MSC_GDPS_WindSpeed_IsbL-0450_LatLon0.15_PT228H.grib2 2026-05-04 16:59 1.1M
20260504T12Z_MSC_GDPS_WindSpeed_IsbL-0500_LatLon0.15_PT228H.grib2 2026-05-04 16:59 1.1M
20260504T12Z_MSC_GDPS_WindSpeed_IsbL-0550_LatLon0.15_PT228H.grib2 2026-05-04 16:59 1.1M
20260504T12Z_MSC_GDPS_WindSpeed_IsbL-0600_LatLon0.15_PT228H.grib2 2026-05-04 16:59 1.1M
20260504T12Z_MSC_GDPS_WindSpeed_IsbL-0650_LatLon0.15_PT228H.grib2 2026-05-04 16:59 1.5M
20260504T12Z_MSC_GDPS_WindSpeed_IsbL-0700_LatLon0.15_PT228H.grib2 2026-05-04 16:59 1.5M
20260504T12Z_MSC_GDPS_WindSpeed_IsbL-0750_LatLon0.15_PT228H.grib2 2026-05-04 16:59 1.6M
20260504T12Z_MSC_GDPS_WindSpeed_IsbL-0800_LatLon0.15_PT228H.grib2 2026-05-04 16:59 1.7M
20260504T12Z_MSC_GDPS_WindSpeed_IsbL-0850_LatLon0.15_PT228H.grib2 2026-05-04 16:59 1.7M
20260504T12Z_MSC_GDPS_WindSpeed_IsbL-0875_LatLon0.15_PT228H.grib2 2026-05-04 16:59 1.8M
20260504T12Z_MSC_GDPS_WindSpeed_IsbL-0900_LatLon0.15_PT228H.grib2 2026-05-04 16:59 1.9M
20260504T12Z_MSC_GDPS_WindSpeed_IsbL-0925_LatLon0.15_PT228H.grib2 2026-05-04 16:59 1.9M
20260504T12Z_MSC_GDPS_WindSpeed_IsbL-0950_LatLon0.15_PT228H.grib2 2026-05-04 16:59 1.9M
20260504T12Z_MSC_GDPS_WindSpeed_IsbL-0970_LatLon0.15_PT228H.grib2 2026-05-04 16:59 1.9M
20260504T12Z_MSC_GDPS_WindSpeed_IsbL-0985_LatLon0.15_PT228H.grib2 2026-05-04 16:59 1.8M
20260504T12Z_MSC_GDPS_WindSpeed_IsbL-1000_LatLon0.15_PT228H.grib2 2026-05-04 16:59 1.8M
20260504T12Z_MSC_GDPS_WindSpeed_IsbL-1015_LatLon0.15_PT228H.grib2 2026-05-04 16:59 1.8M
20260504T12Z_MSC_GDPS_WindU_AGL-10m_LatLon0.15_PT228H.grib2 2026-05-04 16:59 1.3M
20260504T12Z_MSC_GDPS_WindU_AGL-120m_LatLon0.15_PT228H.grib2 2026-05-04 16:59 1.0M
20260504T12Z_MSC_GDPS_WindU_AGL-40m_LatLon0.15_PT228H.grib2 2026-05-04 16:59 968K
20260504T12Z_MSC_GDPS_WindU_AGL-80m_LatLon0.15_PT228H.grib2 2026-05-04 16:59 1.0M
20260504T12Z_MSC_GDPS_WindU_IsbL-0001_LatLon0.15_PT228H.grib2 2026-05-04 16:59 603K
20260504T12Z_MSC_GDPS_WindU_IsbL-0005_LatLon0.15_PT228H.grib2 2026-05-04 16:59 694K
20260504T12Z_MSC_GDPS_WindU_IsbL-0010_LatLon0.15_PT228H.grib2 2026-05-04 16:59 698K
20260504T12Z_MSC_GDPS_WindU_IsbL-0020_LatLon0.15_PT228H.grib2 2026-05-04 16:59 720K
20260504T12Z_MSC_GDPS_WindU_IsbL-0030_LatLon0.15_PT228H.grib2 2026-05-04 16:59 730K
20260504T12Z_MSC_GDPS_WindU_IsbL-0050_LatLon0.15_PT228H.grib2 2026-05-04 16:59 756K
20260504T12Z_MSC_GDPS_WindU_IsbL-0100_LatLon0.15_PT228H.grib2 2026-05-04 16:59 918K
20260504T12Z_MSC_GDPS_WindU_IsbL-0150_LatLon0.15_PT228H.grib2 2026-05-04 16:59 1.0M
20260504T12Z_MSC_GDPS_WindU_IsbL-0175_LatLon0.15_PT228H.grib2 2026-05-04 16:59 1.0M
20260504T12Z_MSC_GDPS_WindU_IsbL-0200_LatLon0.15_PT228H.grib2 2026-05-04 16:59 847K
20260504T12Z_MSC_GDPS_WindU_IsbL-0225_LatLon0.15_PT228H.grib2 2026-05-04 16:59 860K
20260504T12Z_MSC_GDPS_WindU_IsbL-0250_LatLon0.15_PT228H.grib2 2026-05-04 16:59 862K
20260504T12Z_MSC_GDPS_WindU_IsbL-0275_LatLon0.15_PT228H.grib2 2026-05-04 16:59 943K
20260504T12Z_MSC_GDPS_WindU_IsbL-0300_LatLon0.15_PT228H.grib2 2026-05-04 16:59 934K
20260504T12Z_MSC_GDPS_WindU_IsbL-0350_LatLon0.15_PT228H.grib2 2026-05-04 16:59 887K
20260504T12Z_MSC_GDPS_WindU_IsbL-0400_LatLon0.15_PT228H.grib2 2026-05-04 16:59 889K
20260504T12Z_MSC_GDPS_WindU_IsbL-0450_LatLon0.15_PT228H.grib2 2026-05-04 16:59 892K
20260504T12Z_MSC_GDPS_WindU_IsbL-0500_LatLon0.15_PT228H.grib2 2026-05-04 16:59 1.1M
20260504T12Z_MSC_GDPS_WindU_IsbL-0550_LatLon0.15_PT228H.grib2 2026-05-04 16:59 1.1M
20260504T12Z_MSC_GDPS_WindU_IsbL-0600_LatLon0.15_PT228H.grib2 2026-05-04 16:59 1.2M
20260504T12Z_MSC_GDPS_WindU_IsbL-0650_LatLon0.15_PT228H.grib2 2026-05-04 16:59 1.2M
20260504T12Z_MSC_GDPS_WindU_IsbL-0700_LatLon0.15_PT228H.grib2 2026-05-04 16:59 1.2M
20260504T12Z_MSC_GDPS_WindU_IsbL-0750_LatLon0.15_PT228H.grib2 2026-05-04 16:59 1.3M
20260504T12Z_MSC_GDPS_WindU_IsbL-0800_LatLon0.15_PT228H.grib2 2026-05-04 16:59 1.4M
20260504T12Z_MSC_GDPS_WindU_IsbL-0850_LatLon0.15_PT228H.grib2 2026-05-04 16:59 1.4M
20260504T12Z_MSC_GDPS_WindU_IsbL-0875_LatLon0.15_PT228H.grib2 2026-05-04 16:59 1.4M
20260504T12Z_MSC_GDPS_WindU_IsbL-0900_LatLon0.15_PT228H.grib2 2026-05-04 16:59 1.5M
20260504T12Z_MSC_GDPS_WindU_IsbL-0925_LatLon0.15_PT228H.grib2 2026-05-04 16:59 1.5M
20260504T12Z_MSC_GDPS_WindU_IsbL-0950_LatLon0.15_PT228H.grib2 2026-05-04 16:59 1.4M
20260504T12Z_MSC_GDPS_WindU_IsbL-0970_LatLon0.15_PT228H.grib2 2026-05-04 16:59 1.4M
20260504T12Z_MSC_GDPS_WindU_IsbL-0985_LatLon0.15_PT228H.grib2 2026-05-04 16:59 1.4M
20260504T12Z_MSC_GDPS_WindU_IsbL-1000_LatLon0.15_PT228H.grib2 2026-05-04 16:59 1.4M
20260504T12Z_MSC_GDPS_WindU_IsbL-1015_LatLon0.15_PT228H.grib2 2026-05-04 16:59 1.3M
20260504T12Z_MSC_GDPS_WindV_AGL-10m_LatLon0.15_PT228H.grib2 2026-05-04 16:59 1.3M
20260504T12Z_MSC_GDPS_WindV_AGL-120m_LatLon0.15_PT228H.grib2 2026-05-04 16:59 971K
20260504T12Z_MSC_GDPS_WindV_AGL-40m_LatLon0.15_PT228H.grib2 2026-05-04 16:59 964K
20260504T12Z_MSC_GDPS_WindV_AGL-80m_LatLon0.15_PT228H.grib2 2026-05-04 16:59 970K
20260504T12Z_MSC_GDPS_WindV_IsbL-0001_LatLon0.15_PT228H.grib2 2026-05-04 16:59 722K
20260504T12Z_MSC_GDPS_WindV_IsbL-0005_LatLon0.15_PT228H.grib2 2026-05-04 16:59 788K
20260504T12Z_MSC_GDPS_WindV_IsbL-0010_LatLon0.15_PT228H.grib2 2026-05-04 16:59 804K
20260504T12Z_MSC_GDPS_WindV_IsbL-0020_LatLon0.15_PT228H.grib2 2026-05-04 16:59 921K
20260504T12Z_MSC_GDPS_WindV_IsbL-0030_LatLon0.15_PT228H.grib2 2026-05-04 16:59 926K
20260504T12Z_MSC_GDPS_WindV_IsbL-0050_LatLon0.15_PT228H.grib2 2026-05-04 16:59 968K
20260504T12Z_MSC_GDPS_WindV_IsbL-0100_LatLon0.15_PT228H.grib2 2026-05-04 16:59 1.0M
20260504T12Z_MSC_GDPS_WindV_IsbL-0150_LatLon0.15_PT228H.grib2 2026-05-04 16:59 1.0M
20260504T12Z_MSC_GDPS_WindV_IsbL-0175_LatLon0.15_PT228H.grib2 2026-05-04 16:59 1.0M
20260504T12Z_MSC_GDPS_WindV_IsbL-0200_LatLon0.15_PT228H.grib2 2026-05-04 16:59 846K
20260504T12Z_MSC_GDPS_WindV_IsbL-0225_LatLon0.15_PT228H.grib2 2026-05-04 16:59 857K
20260504T12Z_MSC_GDPS_WindV_IsbL-0250_LatLon0.15_PT228H.grib2 2026-05-04 16:59 915K
20260504T12Z_MSC_GDPS_WindV_IsbL-0275_LatLon0.15_PT228H.grib2 2026-05-04 16:59 878K
20260504T12Z_MSC_GDPS_WindV_IsbL-0300_LatLon0.15_PT228H.grib2 2026-05-04 16:59 866K
20260504T12Z_MSC_GDPS_WindV_IsbL-0350_LatLon0.15_PT228H.grib2 2026-05-04 16:59 936K
20260504T12Z_MSC_GDPS_WindV_IsbL-0400_LatLon0.15_PT228H.grib2 2026-05-04 16:59 937K
20260504T12Z_MSC_GDPS_WindV_IsbL-0450_LatLon0.15_PT228H.grib2 2026-05-04 16:59 882K
20260504T12Z_MSC_GDPS_WindV_IsbL-0500_LatLon0.15_PT228H.grib2 2026-05-04 16:59 888K
20260504T12Z_MSC_GDPS_WindV_IsbL-0550_LatLon0.15_PT228H.grib2 2026-05-04 16:59 896K
20260504T12Z_MSC_GDPS_WindV_IsbL-0600_LatLon0.15_PT228H.grib2 2026-05-04 16:59 1.1M
20260504T12Z_MSC_GDPS_WindV_IsbL-0650_LatLon0.15_PT228H.grib2 2026-05-04 16:59 1.2M
20260504T12Z_MSC_GDPS_WindV_IsbL-0700_LatLon0.15_PT228H.grib2 2026-05-04 16:59 1.2M
20260504T12Z_MSC_GDPS_WindV_IsbL-0750_LatLon0.15_PT228H.grib2 2026-05-04 16:59 1.3M
20260504T12Z_MSC_GDPS_WindV_IsbL-0800_LatLon0.15_PT228H.grib2 2026-05-04 16:59 1.3M
20260504T12Z_MSC_GDPS_WindV_IsbL-0850_LatLon0.15_PT228H.grib2 2026-05-04 16:59 1.4M
20260504T12Z_MSC_GDPS_WindV_IsbL-0875_LatLon0.15_PT228H.grib2 2026-05-04 16:59 1.4M
20260504T12Z_MSC_GDPS_WindV_IsbL-0900_LatLon0.15_PT228H.grib2 2026-05-04 16:59 1.4M
20260504T12Z_MSC_GDPS_WindV_IsbL-0925_LatLon0.15_PT228H.grib2 2026-05-04 16:59 1.4M
20260504T12Z_MSC_GDPS_WindV_IsbL-0950_LatLon0.15_PT228H.grib2 2026-05-04 16:59 1.4M
20260504T12Z_MSC_GDPS_WindV_IsbL-0970_LatLon0.15_PT228H.grib2 2026-05-04 16:59 1.4M
20260504T12Z_MSC_GDPS_WindV_IsbL-0985_LatLon0.15_PT228H.grib2 2026-05-04 16:59 1.4M
20260504T12Z_MSC_GDPS_WindV_IsbL-1000_LatLon0.15_PT228H.grib2 2026-05-04 16:59 1.4M
20260504T12Z_MSC_GDPS_WindV_IsbL-1015_LatLon0.15_PT228H.grib2 2026-05-04 16:59 1.3M